EW3334 Weather Reports


time (UTC)temp
C
wind
direction
speed
KPH
gust
KPH
rain 1hr
cm
rain 24hr
cm
rain mn
cm
humidity
%
barometer
mb
20260507070523 8 253 3.2 19.3 0.00 0.71 0.00 85 1006.1
20260507070024 8 273 1.6 19.3 0.00 0.71 0.00 85 1005.8
20260507065523 8 274 8.0 20.9 0.00 0.71 0.00 85 1006.1
20260507065021 8 360 8.0 25.7 0.00 0.71 0.00 85 1005.8
20260507064520 8 275 8.0 19.3 0.00 0.71 0.00 86 1005.7
20260507064020 8 265 9.7 17.7 0.00 0.71 0.00 86 1005.8
20260507063520 8 277 6.4 16.1 0.00 0.71 0.00 87 1006.0
20260507063019 8 292 6.4 16.1 0.00 0.71 0.00 87 1005.9
20260507062519 8 304 4.8 16.1 0.00 0.71 0.00 87 1005.7
20260507062017 8 239 3.2 9.7 0.00 0.71 0.00 88 1006.0
20260507061517 8 248 1.6 9.7 0.00 0.71 0.00 88 1006.0
20260507061015 8 301 4.8 9.7 0.00 0.71 0.00 88 1006.1
20260507060515 8 271 0.0 12.9 0.00 0.71 0.00 88 1005.6
20260507060015 8 314 3.2 12.9 0.00 0.71 0.00 88 1005.9
20260507055514 8 284 4.8 16.1 0.00 0.71 0.00 89 1006.1
20260507055014 8 240 1.6 16.1 0.00 0.71 0.00 89 1006.3
20260507054513 8 294 3.2 8.0 0.00 0.71 0.00 89 1006.2
20260507054012 8 167 1.6 8.0 0.00 0.71 0.00 89 1006.0
20260507053512 8 212 1.6 8.0 0.00 0.71 0.00 89 1006.1
20260507053011 8 284 1.6 9.7 0.00 0.71 0.00 89 1006.1
20260507052510 8 314 1.6 9.7 0.00 0.71 0.00 89 1006.1
20260507052012 9 327 3.2 8.0 0.00 0.71 0.00 89 1006.1
20260507051509 9 285 3.2 11.3 0.00 0.71 0.00 90 1006.1
20260507051007 9 330 1.6 12.9 0.00 0.71 0.00 90 1006.1
20260507050506 9 283 4.8 9.7 0.00 0.71 0.00 90 1006.2
20260507050009 9 219 1.6 6.4 0.00 0.71 0.00 90 1005.9
20260507045510 9 263 0.0 4.8 0.00 0.71 0.00 91 1006.0
20260507045006 10 274 1.6 9.7 0.00 0.71 0.00 91 1005.8
20260507044506 10 310 3.2 9.7 0.00 0.71 0.00 91 1005.9
20260507044006 10 194 1.6 11.3 0.00 0.71 0.00 91 1005.9
20260507043504 10 220 4.8 11.3 0.00 0.71 0.00 91 1006.0
20260507043003 10 303 4.8 14.5 0.00 0.71 0.00 91 1005.9
20260507042504 10 289 8.0 14.5 0.00 0.71 0.00 91 1006.0
20260507042003 10 287 1.6 11.3 0.00 0.71 0.00 91 1006.1
20260507041506 10 236 0.0 8.0 0.00 0.71 0.00 91 1006.1
20260507041001 10 230 1.6 9.7 0.00 0.71 0.00 91 1006.0
20260507040601 10 255 1.6 11.3 0.03 0.71 0.00 90 1006.0
20260507040101 10 254 6.4 14.5 0.03 0.71 0.00 90 1005.7
20260507035559 10 275 6.4 14.5 0.08 0.71 0.71 90 1005.7
20260507035059 10 243 6.4 17.7 0.08 0.71 0.71 90 1005.7
20260507034607 10 299 3.2 20.9 0.08 0.71 0.71 90 1005.8
20260507034056 10 286 9.7 20.9 0.08 0.71 0.71 89 1005.6
20260507033559 10 221 4.8 19.3 0.08 0.71 0.71 89 1005.6
20260507033056 10 242 6.4 27.4 0.08 0.71 0.71 89 1005.7
20260507032554 10 336 8.0 27.4 0.08 0.71 0.71 89 1005.4
20260507032053 11 290 9.7 25.7 0.08 0.71 0.71 89 1005.4
20260507031551 11 290 11.3 27.4 0.08 0.71 0.71 90 1005.3
20260507031052 11 282 8.0 27.4 0.08 0.71 0.71 90 1005.3
20260507030548 11 213 8.0 25.7 0.05 0.69 0.69 91 1005.4
20260507030051 12 306 6.4 25.7 0.05 0.69 0.69 91 1005.5
20260507025545 12 325 9.7 22.5 0.00 0.64 0.64 92 1005.5
20260507025044 12 268 6.4 19.3 0.00 0.64 0.64 92 1005.5
20260507024543 13 260 8.0 20.9 0.03 0.64 0.64 92 1005.4
20260507024042 13 320 4.8 20.9 0.03 0.64 0.64 93 1005.2
20260507023540 13 252 6.4 19.3 0.03 0.64 0.64 93 1005.2
20260507023038 13 289 9.7 19.3 0.03 0.64 0.64 94 1005.0
20260507022538 14 304 3.2 14.5 0.03 0.64 0.64 94 1004.9
20260507022038 14 289 4.8 17.7 0.03 0.64 0.64 94 1004.7
20260507021536 14 309 6.4 17.7 0.03 0.64 0.64 94 1004.5
20260507021035 14 269 3.2 9.7 0.03 0.64 0.64 94 1004.6
20260507020536 14 271 1.6 9.7 0.03 0.64 0.64 94 1004.5
20260507020035 14 189 0.0 3.2 0.03 0.64 0.64 94 1004.4
20260507015534 14 158 0.0 3.2 0.03 0.64 0.64 94 1004.3
20260507015034 14 158 0.0 3.2 0.03 0.64 0.64 94 1004.3
20260507014549 14 158 0.0 4.8 0.00 0.61 0.61 94 1004.3
20260507014034 14 158 1.6 4.8 0.00 0.61 0.61 94 1004.3
20260507013534 14 179 1.6 4.8 0.00 0.61 0.61 94 1004.4
20260507013043 14 174 1.6 4.8 0.00 0.61 0.61 94 1004.3
20260507012535 14 190 1.6 4.8 0.00 0.61 0.61 94 1004.3
20260507012034 14 186 1.6 4.8 0.00 0.61 0.61 94 1004.3
20260507011538 14 186 1.6 6.4 0.00 0.61 0.61 94 1004.3
20260507011033 14 184 3.2 6.4 0.00 0.61 0.61 94 1004.3
20260507010532 14 167 0.0 4.8 0.00 0.61 0.61 94 1004.3
20260507010034 14 182 1.6 4.8 0.00 0.61 0.61 94 1004.4
20260507005532 14 166 0.0 4.8 0.00 0.61 0.61 94 1004.3
20260507005031 14 166 0.0 4.8 0.00 0.61 0.61 94 1004.3
20260507004532 14 166 3.2 4.8 0.00 0.61 0.61 94 1004.3
20260507004032 14 142 0.0 4.8 0.00 0.61 0.61 94 1004.2
20260507003531 14 142 0.0 4.8 0.00 0.61 0.61 94 1004.1
20260507003031 14 179 3.2 4.8 0.00 0.61 0.61 94 1004.1
20260507002531 14 169 1.6 6.4 0.00 0.61 0.61 94 1004.1
20260507002032 14 156 1.6 4.8 0.00 0.61 0.61 94 1004.0
20260507001531 14 152 1.6 4.8 0.00 0.61 0.61 94 1004.1
20260507001031 14 141 1.6 6.4 0.00 0.61 0.61 93 1004.0
20260507000533 14 169 3.2 6.4 0.00 0.61 0.61 93 1004.0
20260507000032 14 164 3.2 6.4 0.00 0.61 0.61 93 1003.9
20260506235529 14 148 1.6 9.7 0.00 0.61 0.61 93 1003.8
20260506235029 14 173 1.6 9.7 0.00 0.61 0.61 93 1003.9
20260506234529 14 173 1.6 6.4 0.00 0.61 0.61 93 1003.8
20260506234028 14 181 3.2 6.4 0.00 0.61 0.61 93 1003.8
20260506233527 14 157 1.6 6.4 0.00 0.61 0.61 93 1003.8
20260506233027 14 140 3.2 6.4 0.00 0.61 0.61 93 1003.9
20260506232526 14 181 3.2 8.0 0.00 0.61 0.61 93 1004.0
20260506232026 14 144 1.6 8.0 0.00 0.61 0.61 93 1003.9
20260506231527 15 166 1.6 6.4 0.00 0.61 0.61 93 1003.9
20260506231025 14 148 3.2 6.4 0.00 0.61 0.61 93 1003.9
20260506230524 15 161 1.6 6.4 0.00 0.61 0.61 93 1004.0
20260506230024 15 155 1.6 6.4 0.03 0.61 0.61 93 1004.1
20260506225524 15 159 4.8 6.4 0.03 0.61 0.61 93 1004.0
20260506225027 15 144 3.2 11.3 0.03 0.61 0.61 93 1004.1
20260506224524 15 144 1.6 11.3 0.03 0.61 0.61 93 1004.0
20260506224024 15 169 3.2 6.4 0.03 0.61 0.61 93 1004.0
20260506223523 15 161 1.6 6.4 0.05 0.61 0.61 92 1004.1
20260506223024 15 171 1.6 6.4 0.05 0.61 0.61 92 1004.2
20260506222522 15 151 3.2 6.4 0.05 0.61 0.61 92 1004.2
20260506222021 15 175 1.6 8.0 0.05 0.61 0.61 92 1004.2
20260506221520 15 153 3.2 9.7 0.08 0.61 0.61 92 1004.2
20260506221019 15 175 4.8 8.0 0.08 0.61 0.61 92 1004.3
20260506220520 15 173 4.8 8.0 0.10 0.61 0.61 92 1004.3
20260506220018 15 164 3.2 8.0 0.08 0.58 0.58 92 1004.3
20260506215517 15 159 1.6 11.3 0.08 0.58 0.58 92 1004.4
20260506215016 15 173 4.8 11.3 0.08 0.58 0.58 92 1004.3
20260506214516 15 163 3.2 8.0 0.08 0.58 0.58 92 1004.4
20260506214014 15 152 3.2 8.0 0.10 0.58 0.58 92 1004.4
20260506213515 15 162 3.2 8.0 0.08 0.56 0.56 92 1004.4
20260506213016 15 126 3.2 8.0 0.08 0.56 0.56 92 1004.4
20260506212513 15 149 3.2 9.7 0.08 0.56 0.56 92 1004.5
20260506212012 15 150 4.8 9.7 0.05 0.53 0.53 92 1004.6
20260506211511 15 176 1.6 9.7 0.05 0.53 0.53 92 1004.6
20260506211011 15 177 4.8 9.7 0.05 0.53 0.53 92 1004.5
20260506210511 15 172 3.2 11.3 0.03 0.51 0.51 91 1004.6
20260506210014 15 169 3.2 8.0 0.05 0.51 0.51 91 1004.6
20260506205510 15 155 4.8 8.0 0.08 0.51 0.51 92 1004.7
20260506205009 16 173 3.2 8.0 0.08 0.51 0.51 92 1004.7
20260506204508 16 169 3.2 8.0 0.10 0.51 0.51 91 1004.7
20260506204008 16 173 3.2 8.0 0.08 0.48 0.48 91 1004.7
20260506203508 16 150 3.2 6.4 0.08 0.48 0.48 91 1004.8
20260506203008 16 151 1.6 9.7 0.08 0.48 0.48 91 1004.8
20260506202508 16 148 3.2 11.3 0.08 0.48 0.48 91 1004.8
20260506202013 16 186 3.2 11.3 0.08 0.48 0.48 91 1004.9
20260506201509 16 173 4.8 8.0 0.08 0.48 0.48 91 1004.9
20260506201007 16 164 1.6 6.4 0.08 0.48 0.48 91 1004.9
20260506200506 16 147 1.6 6.4 0.08 0.48 0.48 91 1004.9
20260506200009 16 165 1.6 4.8 0.05 0.46 0.46 91 1004.9
20260506195506 16 178 1.6 4.8 0.05 0.43 0.43 91 1005.0
20260506195006 16 180 3.2 4.8 0.05 0.43 0.43 90 1005.1
20260506194508 16 188 1.6 4.8 0.05 0.41 0.41 90 1005.1
20260506194009 16 167 1.6 4.8 0.08 0.41 0.41 90 1005.1
20260506193509 16 167 1.6 4.8 0.10 0.41 0.41 90 1005.0
20260506193006 16 164 1.6 4.8 0.13 0.41 0.41 90 1005.0
20260506192505 16 159 1.6 4.8 0.13 0.41 0.41 90 1004.9
20260506192007 16 143 1.6 4.8 0.18 0.41 0.41 89 1004.8
20260506191504 16 157 1.6 4.8 0.20 0.41 0.41 89 1004.7
20260506191005 16 247 0.0 3.2 0.25 0.41 0.41 89 1004.9
20260506190503 16 247 0.0 3.2 0.28 0.41 0.41 88 1005.0
20260506190003 16 247 0.0 3.2 0.30 0.41 0.41 87 1005.1
20260506185600 16 247 0.0 1.6 0.28 0.38 0.38 87 1005.1
20260506185100 16 247 0.0 3.2 0.30 0.38 0.38 86 1005.2
20260506184558 16 247 0.0 4.8 0.30 0.36 0.36 85 1005.3
20260506184058 17 247 1.6 4.8 0.30 0.33 0.33 85 1005.6
20260506183559 17 247 0.0 3.2 0.30 0.30 0.30 84 1005.6
20260506183057 17 247 1.6 3.2 0.28 0.28 0.28 84 1005.7
20260506182555 17 247 0.0 1.6 0.28 0.28 0.28 83 1005.8
20260506182058 17 247 0.0 3.2 0.23 0.23 0.23 81 1005.9
20260506181554 17 247 0.0 6.4 0.20 0.20 0.20 81 1005.8
20260506181054 18 269 1.6 6.4 0.15 0.15 0.15 79 1005.9
20260506180553 18 315 0.0 3.2 0.13 0.13 0.13 78 1005.8
20260506180103 18 315 0.0 8.0 0.10 0.10 0.10 77 1006.0
20260506175553 18 258 0.0 8.0 0.08 0.08 0.08 75 1006.1
20260506175054 19 159 1.6 6.4 0.08 0.08 0.08 74 1006.1
20260506174552 19 168 1.6 6.4 0.05 0.05 0.05 72 1006.1
20260506174052 20 189 3.2 6.4 0.03 0.03 0.03 70 1006.1
20260506173552 20 146 1.6 6.4 0.00 0.00 0.00 68 1005.9
20260506173107 20 170 1.6 8.0 0.00 0.00 0.00 65 1005.7
20260506172555 20 182 3.2 8.0 0.00 0.00 0.00 64 1005.6
20260506172051 20 159 3.2 8.0 0.00 0.00 0.00 64 1005.4
20260506171558 21 169 4.8 8.0 0.00 0.00 0.00 63 1005.6
20260506171051 21 155 3.2 8.0 0.00 0.00 0.00 62 1005.5
20260506170549 21 160 3.2 9.7 0.00 0.00 0.00 62 1005.6
20260506170049 21 180 4.8 11.3 0.00 0.00 0.00 61 1005.6
20260506165549 21 155 6.4 11.3 0.00 0.00 0.00 60 1005.6
20260506165048 21 172 3.2 14.5 0.00 0.00 0.00 61 1005.6
20260506164548 21 178 6.4 14.5 0.00 0.00 0.00 62 1005.7
20260506164051 21 170 3.2 9.7 0.00 0.00 0.00 62 1005.8
20260506163546 21 161 4.8 9.7 0.00 0.00 0.00 62 1005.9
20260506163049 21 165 4.8 9.7 0.00 0.00 0.00 62 1005.9
20260506162546 21 169 3.2 9.7 0.00 0.00 0.00 62 1006.0
20260506162045 21 113 4.8 9.7 0.00 0.00 0.00 63 1006.1
20260506161552 21 154 3.2 6.4 0.00 0.00 0.00 63 1006.2
20260506161042 21 173 3.2 8.0 0.00 0.00 0.00 64 1006.3
20260506160542 20 59 3.2 9.7 0.00 0.00 0.00 64 1006.4
20260506160040 20 178 3.2 11.3 0.00 0.00 0.00 65 1006.6
20260506155538 20 175 6.4 11.3 0.00 0.00 0.00 65 1006.7
20260506155037 20 153 6.4 9.7 0.00 0.00 0.00 65 1006.8
20260506154536 20 154 4.8 9.7 0.00 0.00 0.00 65 1006.9
20260506154036 20 167 3.2 9.7 0.00 0.00 0.00 65 1007.0
20260506153536 20 161 4.8 9.7 0.00 0.00 0.00 65 1006.9
20260506153038 20 157 3.2 11.3 0.00 0.00 0.00 66 1007.1
20260506152535 20 144 3.2 11.3 0.00 0.00 0.00 65 1007.2
20260506152035 20 162 6.4 11.3 0.00 0.00 0.00 66 1007.3
20260506151535 20 157 6.4 11.3 0.00 0.00 0.00 66 1007.5
20260506151034 20 173 6.4 12.9 0.00 0.00 0.00 66 1007.5
20260506150533 20 167 4.8 12.9 0.00 0.00 0.00 67 1007.5
20260506150035 20 167 3.2 8.0 0.00 0.00 0.00 67 1007.2
20260506145532 20 158 4.8 9.7 0.00 0.00 0.00 67 1007.1
20260506145032 20 174 4.8 9.7 0.00 0.00 0.00 67 1007.5
20260506144531 20 159 3.2 9.7 0.00 0.00 0.00 68 1007.4
20260506144030 20 150 6.4 9.7 0.00 0.00 0.00 68 1007.3
20260506143530 20 174 4.8 9.7 0.00 0.00 0.00 68 1007.3
20260506143029 19 140 6.4 9.7 0.00 0.00 0.00 69 1007.3
20260506142528 19 179 3.2 11.3 0.00 0.00 0.00 69 1007.2
20260506142026 19 171 4.8 9.7 0.00 0.00 0.00 69 1007.2
20260506141525 19 194 3.2 6.4 0.00 0.00 0.00 70 1007.3
20260506141024 18 127 3.2 9.7 0.00 0.00 0.00 71 1007.2
20260506140524 18 121 1.6 9.7 0.00 0.00 0.00 71 1006.9
20260506140023 18 180 3.2 11.3 0.00 0.00 0.00 72 1007.0
20260506135526 18 174 6.4 11.3 0.00 0.00 0.00 72 1007.0
20260506135027 18 172 4.8 8.0 0.00 0.00 0.00 72 1007.2
20260506134541 18 163 4.8 8.0 0.00 0.00 0.00 73 1007.3
20260506134018 17 133 3.2 11.3 0.00 0.00 0.00 73 1007.3
20260506133516 17 172 4.8 11.3 0.00 0.00 0.00 74 1007.4
20260506133016 17 175 3.2 6.4 0.00 0.00 0.00 74 1007.4
20260506132514 17 163 3.2 6.4 0.00 0.00 0.00 74 1007.5
20260506132013 17 142 1.6 9.7 0.00 0.00 0.00 74 1007.5
20260506131513 17 173 4.8 9.7 0.00 0.00 0.00 74 1007.6
20260506131011 17 188 3.2 9.7 0.00 0.00 0.00 74 1007.6
20260506130510 17 178 4.8 9.7 0.00 0.00 0.00 75 1007.6
20260506130010 17 150 3.2 8.0 0.00 0.00 0.00 75 1007.6
20260506125509 17 217 1.6 8.0 0.00 0.00 0.00 75 1007.6
20260506125008 17 184 3.2 8.0 0.00 0.00 0.00 75 1007.7
20260506124513 17 182 3.2 9.7 0.00 0.00 0.00 76 1007.7
20260506124007 16 171 3.2 9.7 0.00 0.00 0.00 76 1007.7
20260506123507 16 171 1.6 6.4 0.00 0.00 0.00 76 1007.8
20260506123006 16 171 1.6 6.4 0.00 0.00 0.00 76 1007.7
20260506122506 16 166 1.6 8.0 0.00 0.00 0.00 76 1007.6
20260506122006 16 171 3.2 9.7 0.00 0.00 0.00 76 1007.6
20260506121508 16 157 4.8 11.3 0.00 0.00 0.00 77 1007.6
20260506121003 16 161 3.2 11.3 0.00 0.00 0.00 77 1007.9
20260506120503 16 184 4.8 9.7 0.00 0.00 0.00 78 1008.0
20260506120009 16 177 3.2 9.7 0.00 0.00 0.00 78 1008.1
20260506115503 16 163 3.2 9.7 0.00 0.00 0.00 78 1008.0
20260506115003 15 176 3.2 6.4 0.00 0.00 0.00 78 1008.0
20260506114503 15 163 3.2 4.8 0.00 0.00 0.00 78 1008.2
20260506114002 15 144 1.6 4.8 0.00 0.00 0.00 79 1008.1
20260506113502 15 190 1.6 6.4 0.00 0.00 0.00 79 1008.2
20260506113004 15 178 1.6 6.4 0.00 0.00 0.00 79 1008.1
20260506112500 15 169 1.6 6.4 0.00 0.00 0.00 79 1008.3
20260506112000 15 152 3.2 9.7 0.00 0.00 0.00 79 1008.3
20260506111622 15 150 4.8 9.7 0.00 0.00 0.00 80 1008.3
20260506111101 15 155 4.8 8.0 0.00 0.00 0.00 80 1008.3
20260506110559 15 175 1.6 4.8 0.00 0.00 0.00 80 1008.3
20260506110059 15 170 1.6 6.4 0.00 0.00 0.00 80 1008.3
20260506105557 15 170 1.6 6.4 0.00 0.00 0.00 80 1008.2
20260506105056 15 151 3.2 9.7 0.00 0.00 0.00 80 1008.2
20260506104604 14 168 1.6 9.7 0.00 0.00 0.00 80 1008.2
20260506104055 14 153 0.0 4.8 0.00 0.00 0.00 80 1008.4
20260506103555 14 153 1.6 6.4 0.00 0.00 0.00 80 1008.3
20260506103059 14 167 3.2 6.4 0.00 0.00 0.00 80 1008.2
20260506102554 14 159 3.2 6.4 0.00 0.00 0.00 79 1008.1
20260506102056 14 144 3.2 6.4 0.00 0.00 0.00 79 1008.1
20260506101553 14 166 1.6 3.2 0.00 0.00 0.00 79 1008.1
20260506101051 15 166 1.6 6.4 0.00 0.00 0.00 79 1008.1
20260506100551 15 171 3.2 6.4 0.00 0.00 0.00 78 1008.1
20260506100050 15 146 3.2 6.4 0.00 0.00 0.00 78 1008.1
20260506095550 15 146 3.2 6.4 0.00 0.00 0.00 78 1008.3
20260506095049 15 161 1.6 6.4 0.00 0.00 0.00 78 1008.2
20260506094549 15 170 3.2 6.4 0.00 0.00 0.00 78 1008.1
20260506094049 15 174 3.2 6.4 0.00 0.00 0.00 78 1008.1
20260506093552 15 171 3.2 6.4 0.00 0.00 0.00 78 1008.1
20260506093053 15 164 3.2 6.4 0.00 0.00 0.00 78 1007.9
20260506092548 15 160 3.2 9.7 0.00 0.00 0.00 78 1008.0
20260506092051 15 159 4.8 9.7 0.00 0.00 0.00 78 1008.1
20260506091547 15 167 3.2 8.0 0.00 0.00 0.00 78 1008.1
20260506091047 15 159 3.2 6.4 0.00 0.00 0.00 78 1008.0
20260506090551 15 158 3.2 8.0 0.00 0.00 0.00 78 1008.0
20260506090046 15 166 3.2 8.0 0.00 0.00 0.00 78 1008.0
20260506085545 15 163 4.8 8.0 0.00 0.00 0.00 78 1007.9
20260506085045 14 174 3.2 6.4 0.00 0.00 0.00 78 1008.0
20260506084545 14 164 4.8 6.4 0.00 0.00 0.00 77 1008.1
20260506084047 14 163 3.2 6.4 0.00 0.00 0.00 77 1008.1
20260506083545 14 164 3.2 6.4 0.00 0.00 0.00 77 1008.0
20260506083059 14 161 3.2 6.4 0.00 0.00 0.00 76 1008.0
20260506082543 14 173 1.6 4.8 0.00 0.00 0.00 76 1008.0
20260506082042 14 173 3.2 4.8 0.00 0.00 0.00 75 1008.1
20260506081548 15 173 1.6 4.8 0.00 0.00 0.00 74 1008.0
20260506081041 15 154 1.6 3.2 0.00 0.00 0.00 74 1008.1
20260506080543 15 154 1.6 3.2 0.00 0.00 0.00 74 1008.1
20260506073039 15 164 1.6 3.2 0.00 0.00 0.00 73 1007.9
20260506072538 15 164 0.0 3.2 0.00 0.00 0.00 73 1007.9
20260506072038 15 164 0.0 3.2 0.00 0.00 0.00 72 1007.8
20260506071538 15 164 1.6 3.2 0.00 0.00 0.00 72 1007.8
20260506071038 15 161 0.0 3.2 0.00 0.00 0.00 72 1007.7